Hill City, KS

8:16 PM CDT on August 27, 2016 (GMT -0500)
Hill City Municipal

Weather History for KHLC - August, 2013

Change the Weather History Date:

Thursday, August 15, 2013

  Actual Average Record
Temperature  
Mean Temperature 74 °F 77 °F  
Max Temperature 86 °F 90 °F 108 °F (1936)
Min Temperature 62 °F 64 °F 51 °F (2006)
Cooling Degree Days 8    
Growing Degree Days 24 (Base 50)    
Moisture  
Dew Point 61 °F    
Average Humidity 70    
Maximum Humidity 93    
Minimum Humidity 41    
Precipitation  
Precipitation 0.02 in 0.10 in 0.37 in (2014)
Month to date precipitation 0.71 1.42  
Year to date precipitation 12.89 16.39  
Sea Level Pressure  
Sea Level Pressure 29.99 in    
Wind  
Wind Speed 6 mph (WSW)    
Max Wind Speed 13 mph    
Max Gust Speed 32 mph    
Visibility 10 miles    
Events Rain , Thunderstorm    
T = Trace of Precipitation, MM = Missing Value Source: NWS Daily Summary

Daily Weather History Graph

Daily Weather History Graph

Search for Another Location

Airport or City:

Trip Planner

Search our weather history database for the weather conditions in past years. The results will help you decide how hot, cold, wet, or windy it might be!

Date:

Astronomy

Aug. 15, 2013 Rise Set
Actual Time 6:52 AM CDT 8:34 PM CDT
Civil Twilight 6:23 AM CDT 9:03 PM CDT
Nautical Twilight 5:48 AM CDT 9:37 PM CDT
Astronomical Twilight 5:11 AM CDT 10:14 PM CDT
Moon 3:52 PM CDT (8/15) 1:03 AM CDT (8/15)
Length of Visible Light 14h 39m
Length of Day
13h 42m
Waxing Gibbous, 64% of the Moon is Illuminated
Aug 15
Waxing Gibbous
Aug 20
Full
Aug 28
Last Quarter
Sep 5
New
Sep 12
First Quarter

Hourly Weather History & Observations

Time (CDT) Temp. Heat Index Dew Point Humidity Pressure Visibility Wind Dir Wind Speed Gust Speed Precip Events Conditions
12:53 AM 64.9 °F - 63.0 °F 93% 30.05 in 10.0 mi SSW 4.6 mph - N/A   Clear
1:53 AM 64.0 °F - 62.1 °F 93% 30.05 in 10.0 mi SSW 3.5 mph - N/A   Clear
2:53 AM 64.0 °F - 62.1 °F 93% 30.02 in 10.0 mi South 5.8 mph - N/A   Clear
3:53 AM 66.0 °F - 62.1 °F 87% 30.01 in 10.0 mi SSW 9.2 mph - N/A   Clear
4:53 AM 64.9 °F - 62.1 °F 90% 30.01 in 10.0 mi SSW 6.9 mph - N/A   Clear
6:53 AM 63.0 °F - 61.0 °F 93% 30.03 in 10.0 mi WSW 6.9 mph - N/A   Clear
7:53 AM 64.0 °F - 60.1 °F 87% 30.05 in 10.0 mi West 6.9 mph - N/A   Clear
8:53 AM 66.9 °F - 61.0 °F 81% 30.04 in 10.0 mi West 8.1 mph - N/A   Clear
9:53 AM 71.1 °F - 60.1 °F 68% 30.02 in 10.0 mi Calm Calm - N/A   Clear
10:53 AM 73.9 °F - 59.0 °F 59% 30.00 in 10.0 mi SSW 8.1 mph - N/A   Clear
11:53 AM 75.9 °F - 60.1 °F 58% 29.98 in 10.0 mi SSW 9.2 mph - N/A   Clear
12:53 PM 80.1 °F 80.6 °F 57.9 °F 47% 29.97 in 10.0 mi SW 8.1 mph - N/A   Clear
1:53 PM 82.9 °F 82.4 °F 57.0 °F 41% 29.95 in 10.0 mi West 6.9 mph - N/A   Clear
2:53 PM 84.9 °F 84.4 °F 59.0 °F 41% 29.95 in 10.0 mi Variable 3.5 mph - N/A   Clear
3:53 PM 81.0 °F 81.3 °F 59.0 °F 47% 29.94 in 10.0 mi WSW 9.2 mph - N/A   Clear
4:53 PM 82.0 °F 82.1 °F 59.0 °F 45% 29.92 in 10.0 mi SW 4.6 mph - N/A   Clear
5:53 PM 82.9 °F 83.3 °F 61.0 °F 47% 29.92 in 10.0 mi Calm Calm - N/A   Clear
6:42 PM 80.6 °F 81.1 °F 59.0 °F 48% 30.01 in 10.0 mi WNW 6.9 mph - N/A Thunderstorm Partly Cloudy
6:53 PM 78.1 °F - 57.9 °F 50% 29.96 in 6.0 mi NNW 12.7 mph 32.2 mph 0.01 in Rain , Thunderstorm Light Rain
7:25 PM 69.8 °F - 62.6 °F 78% 30.01 in 10.0 mi NW 5.8 mph - 0.01 in   Clear
7:53 PM 70.0 °F - 63.0 °F 78% 29.96 in 10.0 mi West 5.8 mph - 0.01 in   Clear
8:53 PM 69.1 °F - 62.1 °F 78% 29.98 in 10.0 mi WNW 4.6 mph - N/A   Clear
9:53 PM 66.9 °F - 63.0 °F 87% 30.00 in 10.0 mi NNE 3.5 mph - N/A   Scattered Clouds
10:53 PM 68.0 °F - 62.1 °F 81% 30.01 in 10.0 mi Calm Calm - N/A   Scattered Clouds